Location: Izdebno
(52.6670°N, 16.2170°E)
Time: 19:45:45
(UTC+01:00)

Vanguard 2 - All Passes

Search period start: 22 February 2024 00:00
Search period end: 03 March 2024 00:00
Orbit: 553 x 2919 km, 32.9° (Epoch: 21 February)

Date Brightness Start Highest point End Pass type
(mag) Time Alt. Az. Time Alt. Az. Time Alt. Az.
22 Feb - 00:04:21 10° WSW 00:18:11 34° SSW 00:32:23 10° SE visible
22 Feb - 02:16:13 10° WSW 02:27:10 20° SW 02:37:28 10° S visible
22 Feb - 18:03:29 10° SSE 18:06:47 11° SE 18:10:24 10° ESE visible
22 Feb - 20:03:52 10° SSW 20:14:05 28° SSE 20:26:58 10° ESE visible
22 Feb - 22:10:22 10° SW 22:23:11 36° S 22:38:11 10° ESE visible
23 Feb - 00:19:31 10° WSW 00:32:52 31° SSW 00:46:37 10° SSE visible
23 Feb - 02:32:34 10° WSW 02:41:33 16° SW 02:50:10 10° S visible
23 Feb - 18:15:19 10° SSE 18:21:04 15° SE 18:27:51 10° ESE visible
23 Feb - 20:18:11 10° SW 20:28:40 30° SSE 20:42:07 10° ESE visible
23 Feb - 22:25:13 10° WSW 22:37:56 36° S 22:52:51 10° SE visible
24 Feb - 00:34:49 10° WSW 00:47:30 28° SSW 01:00:36 10° SSE visible
24 Feb - 02:50:08 10° WSW 02:55:53 12° SW 03:01:30 10° SSW night (unlit)
24 Feb - 18:28:29 10° S 18:35:24 18° SE 18:44:00 10° ESE visible
24 Feb - 20:32:41 10° SW 20:43:19 32° SSE 20:57:09 10° ESE visible
24 Feb - 22:40:10 10° WSW 22:52:41 34° S 23:07:23 10° SE visible
25 Feb - 00:50:19 10° WSW 01:02:05 24° SSW 01:14:15 10° SSE visible
25 Feb - 18:42:14 10° S 18:49:50 21° SSE 18:59:40 10° ESE visible
25 Feb - 20:47:19 10° SW 20:58:01 33° S 21:12:01 10° ESE visible
25 Feb - 22:55:12 10° WSW 23:07:26 32° SSW 23:21:44 10° SE visible
26 Feb - 01:06:08 10° WSW 01:16:36 20° SW 01:27:27 10° S visible
26 Feb - 18:56:18 10° SSW 19:04:20 24° SSE 19:15:02 10° ESE visible
26 Feb - 21:02:04 10° SW 21:12:46 33° S 21:26:47 10° ESE visible
26 Feb - 23:10:22 10° WSW 23:22:09 29° SSW 23:35:52 10° SSE visible
27 Feb - 01:22:31 10° WSW 01:31:04 16° SW 01:39:56 10° S night (unlit)
27 Feb - 17:09:47 10° SSE 17:11:58 11° SE 17:14:19 10° ESE daylight
27 Feb - 19:10:37 10° SSW 19:18:55 26° SSE 19:30:12 10° ESE visible
27 Feb - 21:16:55 10° WSW 21:27:31 33° S 21:41:24 10° SE visible
27 Feb - 23:25:42 10° WSW 23:36:50 26° SSW 23:49:44 10° SSE visible
28 Feb - 01:40:17 10° WSW 01:45:31 12° SW 01:50:52 10° SSW night (unlit)
28 Feb - 17:22:00 10° SSE 17:26:19 14° SE 17:31:29 10° ESE daylight
28 Feb - 19:25:07 10° SW 19:33:33 28° SSE 19:45:12 10° ESE visible
28 Feb - 21:31:53 10° WSW 21:42:17 31° S 21:55:52 10° SE visible
28 Feb - 23:41:14 10° WSW 23:51:29 22° SSW 00:03:12 10° SSE visible
29 Feb - 17:35:28 10° S 17:40:44 17° SE 17:47:24 10° ESE daylight
29 Feb - 19:39:45 10° SW 19:48:14 29° SSE 20:00:03 10° ESE visible
29 Feb - 21:46:57 10° WSW 21:57:04 29° S 22:10:08 10° SE visible
29 Feb - 23:57:10 10° WSW 00:06:07 18° SSW 00:16:09 10° S visible
01 Mar - 17:49:27 10° SSW 17:55:14 19° SSE 18:02:52 10° ESE daylight
01 Mar - 19:54:30 10° SW 20:02:58 29° S 20:14:46 10° ESE visible
01 Mar - 22:02:08 10° WSW 22:11:49 26° SSW 22:24:08 10° SSE visible
02 Mar - 00:13:49 10° WSW 00:20:42 14° SW 00:28:12 10° S visible
02 Mar - 18:03:42 10° SSW 18:09:48 21° SSE 18:18:03 10° ESE visible
02 Mar - 20:09:22 10° SW 20:17:44 28° S 20:29:20 10° SE visible
02 Mar - 22:17:32 10° WSW 22:26:34 23° SSW 22:37:50 10° SSE visible
